TimeAKST,TemperatureF,Dew PointF,Humidity,Sea Level PressureIn,VisibilityMPH,Wind Direction,Wind SpeedMPH,Gust SpeedMPH,PrecipitationIn,Events,Conditions,WindDirDegrees,DateUTC
12:53 AM,28.9,24.1,82,29.48,10.0,ESE,3.5,-,N/A,,Mostly Cloudy,110,2012-12-25 09:53:00
1:53 AM,26.1,24.1,92,29.48,10.0,SW,4.6,-,N/A,,Mostly Cloudy,220,2012-12-25 10:53:00
3:53 AM,27.0,24.1,89,29.47,10.0,WNW,9.2,-,N/A,,Mostly Cloudy,290,2012-12-25 12:53:00
4:53 AM,28.0,23.0,81,29.45,10.0,West,10.4,-,N/A,,Scattered Clouds,280,2012-12-25 13:53:00
5:53 AM,33.1,21.0,61,29.44,10.0,Variable,5.8,18.4,N/A,,Scattered Clouds,0,2012-12-25 14:53:00
6:53 AM,27.0,21.0,78,29.45,10.0,NW,12.7,-,N/A,,Partly Cloudy,310,2012-12-25 15:53:00
7:53 AM,28.9,19.9,69,29.46,10.0,NW,12.7,28.8,N/A,,Scattered Clouds,320,2012-12-25 16:53:00
8:41 AM,30.2,21.2,69,29.46,10.0,NW,16.1,23.0,N/A,,Clear,310,2012-12-25 17:41:00
8:53 AM,28.9,21.9,75,29.49,10.0,WNW,5.8,-,N/A,,Clear,290,2012-12-25 17:53:00
9:53 AM,30.0,24.1,79,29.50,10.0,WNW,10.4,-,N/A,,Partly Cloudy,290,2012-12-25 18:53:00
10:53 AM,28.9,23.0,78,29.53,10.0,Calm,Calm,-,N/A,,Mostly Cloudy,0,2012-12-25 19:53:00
11:53 AM,28.0,23.0,81,29.55,7.0,Calm,Calm,-,0.00,Snow,Light Snow,0,2012-12-25 20:53:00
11:59 AM,28.4,24.8,86,29.55,2.0,Calm,Calm,-,0.00,Snow,Light Snow,0,2012-12-25 20:59:00
12:03 PM,28.4,24.8,86,29.55,1.2,South,3.5,-,0.00,Snow,Light Snow,190,2012-12-25 21:03:00
12:15 PM,30.2,28.4,93,29.55,0.8,WSW,3.5,-,0.00,Snow,Light Snow,240,2012-12-25 21:15:00
12:53 PM,28.9,28.0,96,29.57,0.8,WSW,3.5,-,0.00,Snow,Light Snow,240,2012-12-25 21:53:00
1:53 PM,28.9,28.9,100,29.59,0.8,Calm,Calm,-,0.00,Snow,Light Snow,0,2012-12-25 22:53:00
2:53 PM,28.9,28.0,96,29.60,1.0,Calm,Calm,-,0.00,Snow,Light Snow,0,2012-12-25 23:53:00
3:53 PM,28.9,28.0,96,29.61,1.0,Calm,Calm,-,0.00,Snow,Light Snow,0,2012-12-26 00:53:00
4:53 PM,28.9,28.0,96,29.62,1.0,Calm,Calm,-,0.00,Snow,Light Snow,0,2012-12-26 01:53:00
5:53 PM,27.0,26.1,96,29.63,2.0,Calm,Calm,-,0.00,Snow,Light Snow,0,2012-12-26 02:53:00
6:26 PM,28.4,26.6,93,29.62,6.0,Calm,Calm,-,0.00,Snow,Light Snow,0,2012-12-26 03:26:00
6:53 PM,27.0,26.1,96,29.63,5.0,Calm,Calm,-,0.00,Snow,Light Snow,0,2012-12-26 03:53:00
7:53 PM,28.0,27.0,96,29.64,4.0,Calm,Calm,-,0.00,Snow,Light Snow,0,2012-12-26 04:53:00
8:53 PM,27.0,26.1,96,29.64,6.0,NNW,3.5,-,0.00,Snow,Light Snow,330,2012-12-26 05:53:00
9:53 PM,27.0,26.1,96,29.64,8.0,Calm,Calm,-,0.01,,Overcast,0,2012-12-26 06:53:00
10:53 PM,27.0,25.0,92,29.64,10.0,NNW,3.5,-,N/A,,Scattered Clouds,330,2012-12-26 07:53:00
11:53 PM,26.1,21.9,84,29.64,10.0,North,3.5,-,N/A,,Mostly Cloudy,360,2012-12-26 08:53:00